If you wish to contribute or participate in the discussions about articles you are invited to join SKYbrary as a registered user

 Actions

Martin Miguel De Guemes International Airport

From SKYbrary Wiki

SASA
Airport
ICAO: SASA – IATA: SLA
Summary
Name Martin Miguel De Guemes International Airport
Region South America and Caribbean
Territory Argentina AR.gif
Location Salta, Salta
Serving Salta
Elevation 1,246.022 m
4,088 ft
4,088 ft1,246.022 m
Type medium airport
Coordinates 24° 51' 21.52" S, 65° 29' 10.21" W
Runways
Designator Length Width Surface ROPS
2/20 3000 m9,842.52 ft
45 m147.638 ft
ASP yes/yes
6/24 2400 m7,874.016 ft
30 m98.425 ft
ASP yes/yes


METAR
Observation SASA 200400Z 00000KT CAVOK 21/16 Q1017
Station Salta Aerodrome
Date/Time 20 November 2019 04:00:00
Wind direction
Wind speed 00 kts
Lowest cloud amount clouds and visibility OK
Temperature 21°C
Dew point 16°C
Humidity 73%
QNH 1017 hPa
Weather condition n/a

Airport 7km 3.78 nm
7,000 m
22,965.879 ft
southwest of Salta, Argentina.

Climatology

Subtropical highland climate (Köppen climate classification Cwb).

Maps

Terrain

Loading map...

Airport Layout

Loading map...


Accidents & Serious Incidents at or in vicinity of SASA

None on SKYbrary